User: anonymous   Login
Location: Unspecified
(0.0000°N, 0.0000°E)
Time: 16:20:37
(UTC+00:00)
Language:

KANOPUS-V-IK - Orbit

View from above orbital plane
View from above orbital plane
View from above satellite
View from above satellite

Ground track
Ground track

The orbit data is extracted from the following two-line orbital elements,

1 42825U 17042A   18143.15475307  .00000142  00000-0  10017-4 0  9994
2 42825  97.4258  52.5589 0001797  80.9870 279.1568 15.18848479 47507
Epoch (UTC): 23 May 2018 03:42:50
Eccentricity: 0.0001797
inclination: 97.4258°
perigee height: 508 km
apogee height: 510 km
right ascension of ascending node: 52.5589°
argument of perigee: 80.9870°
revolutions per day: 15.18848479
mean anomaly at epoch: 279.1568°
orbit number at epoch: 4750

The dashed part of the orbit path shows where the satellite is in the earth's shadow,  

DLR